Home > Weather > St. Paul > Past weeks

Flag for USA Weather for the Past 2 Weeks in St. Paul, Minnesota, USA

Now
42 °F

Clear.


Feels Like: 36 °F
Forecast: 42 / 61 °F
Wind: 12 mph from Northeast

Location: St. Paul Downtown Holman Field

Current Time: May 1, 2016 at 6:51:59 AM

Latest Report: May 1, 2016 at 5:53 AM


Visibility: 10 mi

Pressure: 30.15 "Hg

Humidity: 71%

Dew Point: 33 °F

Location of St. PaulLocation

Historic Weather in St. Paul — Graph

°F

St. Paul Temperature Yesterday

Maximum temperature yesterday: 57 °F (at 2:53 PM)
Minimum temperature yesterday: 42 °F (at 5:53 AM)
Average temperature yesterday: 50 °F

High & Low Weather Summary for the Past Weeks

 TemperatureHumidityPressure
High79 °F (Apr 16, 5:53 PM)100% (Apr 29, 4:53 AM)30.30 "Hg (Apr 29, 4:53 AM)
Low34 °F (Apr 29, 4:53 AM)27% (Apr 16, 5:53 PM)29.54 "Hg (Apr 25, 7:53 AM)
Average54 °F69%30.02 "Hg
* Reported Apr 16 4:53 AM — May 1 4:53 AM, St. Paul, Weather by CustomWeather, © 2016

Note: Actual official high and low records may vary slightly from our data, if they occured in-between our weather recording intervals... More about our weather records

Advertising

St. Paul Weather History for the Previous 24 Hours

Scroll right to see more
 ConditionsComfort  
Time TempWeatherWind HumidityBarometerVisibility
4:53 AM
Sun, May 1
43 °FClear.8 mph68%30.15 "Hg10 mi
3:53 AM44 °FClear.5 mph63%30.14 "Hg10 mi
2:53 AM44 °FClear.5 mph63%30.14 "Hg10 mi
1:53 AM45 °FPassing clouds.7 mph60%30.13 "Hg10 mi
12:53 AM46 °FOvercast.10 mph58%30.13 "Hg10 mi
11:53 PM
Sat, Apr 30
47 °FOvercast.10 mph56%30.13 "Hg10 mi
10:53 PM48 °FOvercast.9 mph54%30.13 "Hg10 mi
9:53 PM50 °FOvercast.17 mph46%30.11 "Hg10 mi
8:53 PM51 °FOvercast.16 mph46%30.09 "Hg10 mi
7:53 PM53 °FOvercast.10 mph48%30.08 "Hg10 mi
6:53 PM55 °FOvercast.16 mph47%30.06 "Hg10 mi
5:53 PM57 °FPartly sunny.8 mph44%30.04 "Hg10 mi
4:53 PM57 °FPassing clouds.14 mph44%30.04 "Hg10 mi
3:53 PM57 °FSunny.14 mph42%30.06 "Hg10 mi
2:53 PM57 °FSunny.20 mph41%30.05 "Hg10 mi
1:53 PM56 °FSunny.13 mph44%30.06 "Hg10 mi
12:53 PM55 °FSunny.10 mph45%30.08 "Hg10 mi
11:53 AM53 °FSunny.18 mph45%30.09 "Hg10 mi
10:53 AM52 °FSunny.14 mph49%30.09 "Hg10 mi
9:53 AM50 °FSunny.13 mph52%30.11 "Hg10 mi
8:53 AM46 °FSunny.10 mph61%30.11 "Hg10 mi
7:53 AM43 °FSunny.10 mph68%30.11 "Hg10 mi
6:53 AM42 °FClear.12 mph71%30.11 "Hg10 mi
Weather by CustomWeather, © 2016

See weather overviewHow to use our weather pages